STARLINK-3567, 51871

Orbit data source: Space-Track

STARLINK-3567, 51871 is a payload satellite owned by SpaceX/Seattle (US) in LEO that was launched on Thu, 03 Mar 2022 UTC via an FALCON 9 launch vehicle from the Air Force Eastern Test Range (AFETR). Payload-class satellites include a variety of spacecraft equipped with specific instruments for various scientific and technological missions. These include communications satellites like Starlink; space stations such as the ISS; scientific satellites like the Hubble; Earth observation satellites from companies like Planet Labs, Umbra, and HawkEye 360; GPS; miniature CubeSats for education and research; and military/defense satellites.

Loading next visibility...
Identifier
51871, 2022-022V
Orbit
LEO
Country
Flag of USUS
Related business
Manufacturer
SpaceX/Seattle
Mission
Operational Commercial Communications
Bus & Motor
STARLINK, Unknown motor
Mass
297 kg wet, ~275 kg dry
Launch date (UTC)
2022-03-03 (4 years ago)
Launch vehicle
FALCON 9
Launch site
Air Force Eastern Test Range (AFETR)
Object type
Payload
Rocket body
Debris
Shape & HBR
Box + 1 Pan, 10.1 m
Radar Cross Section
13.562 m², Large (>1 m²)

Expand to show TLE details & history
Last TLE update: 3 days ago

TLE from 3 days ago
0 STARLINK-3567
1 51871U 22022V   26170.55787075 -.00001051  00000-0 -47974-4 0  9994
2 51871  53.1608 271.7077 0001100  91.6117 268.5001 15.08837178238604
Epoch: 2026-06-19T13:23Z
TLE epoch observation values (Epoch: 2026-06-19T13:23:20.032Z)
Latitude
0.00001°
Longitude
163.08911°
Altitude
540.663 km
Speed
7.593 km/s
True Right ascension
18h 06m 49s
True Declination
0° 00' 00"
Sunlit
Object was in full shadow at epoch
Visualization orbit readout
Latitude
Unknown
Longitude
Unknown
Altitude
Unknown
Speed
Unknown
Apparent Right ascension
Unknown
Apparent Declination
Unknown
Sunlit
N/A
Visualization observer readout
Local Sidereal Time
21:33:21
Azimuth
Unknown
Elevation
Unknown
Doppler factor
Unknown
Orbital elements
Apogee altitude
540.767 km
Perigee altitude
539.245 km
Semi-major axis
6,918.143 km
Eccentricity
0.00011
Inclination
53.1608°
RAAN
271.7077°
Arg. of periapsis
91.6117°
True anomaly
268.4875°
Mean anomaly
268.5001°
Eccentric anomaly
268.4938°
Mean motion
3.77189 °/min
Orbital period
95.44 mins
BSTAR
-0.000047974
Loading maneuver chart data...
Computing Atmospheric mass density...
Loading historical data...
Loading historical data...
Loading historical data...
Loading historical data...
Loading historical data...
Loading historical data...
Loading historical data...

Documentation

Showing up to 5 results
|